Hourly Weather Godzimierz

Today, 7 May, Friday

Time Temperature Precipitation Wind Pressure Humidity
00:00 +4°C° 0 mm 2 mps 746 mmHg 81%
01:00 +5°C° 0 mm 1 mps 746 mmHg 80%
02:00 +5°C° 0 mm 1 mps 745 mmHg 81%
03:00 +5°C° 0 mm 1 mps 745 mmHg 81%
04:00 +5°C° 0 mm 1 mps 745 mmHg 82%
05:00 +6°C° 0 mm 1 mps 745 mmHg 79%
06:00 +7°C° 0 mm 1 mps 745 mmHg 77%
07:00 +8°C° 0 mm 1 mps 745 mmHg 75%
08:00 +9°C° 0.1 mm 1 mps 745 mmHg 69%
09:00 +10°C° 0.1 mm 1 mps 745 mmHg 63%
10:00 +11°C° 0.1 mm 1 mps 746 mmHg 57%
11:00 +9°C° 0.4 mm 2 mps 746 mmHg 63%
12:00 +9°C° 0.4 mm 3 mps 746 mmHg 68%
13:00 +7°C° 0.4 mm 4 mps 746 mmHg 73%
14:00 +6°C° 1.2 mm 4 mps 747 mmHg 79%
15:00 +6°C° 1.2 mm 5 mps 747 mmHg 85%
16:00 +5°C° 1.2 mm 5 mps 747 mmHg 91%
17:00 +5°C° 0.4 mm 5 mps 748 mmHg 90%
18:00 +3°C° 0.4 mm 5 mps 749 mmHg 88%
19:00 +4°C° 0.4 mm 4 mps 749 mmHg 87%
20:00 +3°C° 0 mm 4 mps 750 mmHg 89%
21:00 +3°C° 0 mm 3 mps 750 mmHg 92%
22:00 +2°C° 0 mm 3 mps 751 mmHg 94%
23:00 +1°C° 0 mm 4 mps 751 mmHg 95%

Tomorrow, 8 May, Saturday

Time Temperature Precipitation Wind Pressure Humidity
00:00 +1°C° 0 mm 4 mps 751 mmHg 95%
01:00 +1°C° 0 mm 5 mps 752 mmHg 96%
02:00 +1°C° 0 mm 5 mps 752 mmHg 95%
03:00 +1°C° 0 mm 4 mps 752 mmHg 95%
04:00 0°C° 0 mm 4 mps 753 mmHg 95%
05:00 +1°C° 0 mm 4 mps 753 mmHg 92%
06:00 +2°C° 0 mm 5 mps 754 mmHg 89%
07:00 +3°C° 0 mm 5 mps 754 mmHg 86%
08:00 +4°C° 0 mm 6 mps 754 mmHg 79%
09:00 +5°C° 0 mm 6 mps 754 mmHg 73%
10:00 +8°C° 0 mm 6 mps 755 mmHg 66%
11:00 +9°C° 0 mm 6 mps 755 mmHg 59%
12:00 +10°C° 0 mm 6 mps 755 mmHg 53%
13:00 +11°C° 0 mm 6 mps 755 mmHg 46%
14:00 +10°C° 0 mm 5 mps 755 mmHg 47%
15:00 +10°C° 0 mm 5 mps 755 mmHg 49%
16:00 +10°C° 0 mm 5 mps 755 mmHg 50%
17:00 +10°C° 0 mm 3 mps 755 mmHg 55%
18:00 +9°C° 0 mm 2 mps 755 mmHg 61%
19:00 +9°C° 0 mm 1 mps 755 mmHg 66%
20:00 +8°C° 0 mm 1 mps 755 mmHg 68%
21:00 +6°C° 0 mm 2 mps 756 mmHg 69%
22:00 +5°C° 0 mm 2 mps 756 mmHg 71%
23:00 +5°C° 0 mm 2 mps 756 mmHg 72%

Day after tomorrow, 9 May, Sunday

Time Temperature Precipitation Wind Pressure Humidity
00:00 +4°C° 0 mm 3 mps 756 mmHg 73%
01:00 +3°C° 0 mm 3 mps 756 mmHg 75%
02:00 +3°C° 0 mm 3 mps 755 mmHg 76%
03:00 +4°C° 0 mm 4 mps 755 mmHg 78%
04:00 +4°C° 0 mm 4 mps 755 mmHg 79%
05:00 +5°C° 0 mm 4 mps 755 mmHg 76%
06:00 +7°C° 0 mm 5 mps 754 mmHg 72%
07:00 +8°C° 0 mm 5 mps 754 mmHg 69%
08:00 +9°C° 0 mm 5 mps 754 mmHg 69%
09:00 +10°C° 0 mm 5 mps 754 mmHg 68%
10:00 +12°C° 0 mm 5 mps 754 mmHg 68%
11:00 +14°C° 0 mm 5 mps 754 mmHg 63%
12:00 +16°C° 0 mm 6 mps 753 mmHg 57%
13:00 +19°C° 0 mm 6 mps 753 mmHg 52%
14:00 +19°C° 0 mm 6 mps 753 mmHg 55%
15:00 +19°C° 0 mm 5 mps 753 mmHg 59%
16:00 +20°C° 0 mm 5 mps 753 mmHg 62%
17:00 +18°C° 0 mm 4 mps 753 mmHg 69%
18:00 +17°C° 0 mm 4 mps 752 mmHg 75%
19:00 +14°C° 0 mm 3 mps 752 mmHg 82%
20:00 +13°C° 0 mm 4 mps 752 mmHg 82%
21:00 +12°C° 0 mm 4 mps 753 mmHg 82%
22:00 +11°C° 0 mm 4 mps 753 mmHg 83%
23:00 +11°C° 0 mm 4 mps 753 mmHg 81%

10 May, Monday

Time Temperature Precipitation Wind Pressure Humidity
00:00 +10°C° 0 mm 4 mps 753 mmHg 80%
01:00 +8°C° 0 mm 4 mps 753 mmHg 79%
02:00 +8°C° 0 mm 4 mps 752 mmHg 77%
03:00 +8°C° 0 mm 4 mps 752 mmHg 76%
04:00 +8°C° 0 mm 5 mps 752 mmHg 75%
05:00 +9°C° 0 mm 5 mps 752 mmHg 73%
06:00 +12°C° 0 mm 5 mps 752 mmHg 72%
07:00 +13°C° 0 mm 6 mps 752 mmHg 70%
08:00 +15°C° 0 mm 6 mps 752 mmHg 65%
09:00 +17°C° 0 mm 7 mps 752 mmHg 61%
10:00 +20°C° 0 mm 7 mps 752 mmHg 56%
11:00 +21°C° 0 mm 7 mps 751 mmHg 56%
12:00 +21°C° 0 mm 8 mps 751 mmHg 55%
13:00 +22°C° 0 mm 8 mps 751 mmHg 55%
14:00 +22°C° 0 mm 7 mps 751 mmHg 58%
15:00 +22°C° 0 mm 6 mps 751 mmHg 61%
16:00 +22°C° 0 mm 6 mps 751 mmHg 64%
17:00 +21°C° 0 mm 5 mps 751 mmHg 70%
18:00 +19°C° 0 mm 4 mps 751 mmHg 76%
19:00 +18°C° 0 mm 3 mps 751 mmHg 82%
20:00 +17°C° 0 mm 3 mps 751 mmHg 86%
21:00 +16°C° 0 mm 3 mps 752 mmHg 89%
22:00 +14°C° 0 mm 3 mps 752 mmHg 92%
23:00 +14°C° 0 mm 3 mps 751 mmHg 92%

11 May, Tuesday

Time Temperature Precipitation Wind Pressure Humidity
00:00 +13°C° 0 mm 3 mps 751 mmHg 93%
01:00 +13°C° 0 mm 4 mps 751 mmHg 93%
02:00 +13°C° 0 mm 4 mps 751 mmHg 92%
03:00 +12°C° 0 mm 4 mps 751 mmHg 92%
04:00 +12°C° 0 mm 4 mps 751 mmHg 92%
05:00 +13°C° 0 mm 4 mps 750 mmHg 87%
06:00 +15°C° 0 mm 5 mps 750 mmHg 82%
07:00 +16°C° 0 mm 6 mps 750 mmHg 78%
08:00 +19°C° 0 mm 6 mps 750 mmHg 73%
09:00 +20°C° 0 mm 7 mps 750 mmHg 68%
10:00 +22°C° 0 mm 7 mps 749 mmHg 63%
11:00 +23°C° 0 mm 7 mps 749 mmHg 61%
12:00 +24°C° 0 mm 7 mps 749 mmHg 59%
13:00 +24°C° 0 mm 7 mps 749 mmHg 57%
14:00 +24°C° 0 mm 7 mps 749 mmHg 60%
15:00 +24°C° 0 mm 7 mps 748 mmHg 62%
16:00 +24°C° 0 mm 6 mps 748 mmHg 64%
17:00 +23°C° 0 mm 5 mps 748 mmHg 70%
18:00 +21°C° 0 mm 4 mps 748 mmHg 75%
19:00 +20°C° 0 mm 3 mps 748 mmHg 80%
20:00 +19°C° 0 mm 4 mps 748 mmHg 83%
21:00 +18°C° 0 mm 4 mps 748 mmHg 86%
22:00 +17°C° 0 mm 4 mps 748 mmHg 88%
23:00 +16°C° 0 mm 5 mps 748 mmHg 87%

12 May, Wednesday

Time Temperature Precipitation Wind Pressure Humidity
00:00 +15°C° 0 mm 5 mps 748 mmHg 86%
01:00 +15°C° 0 mm 5 mps 747 mmHg 85%
02:00 +14°C° 0 mm 5 mps 747 mmHg 84%
03:00 +14°C° 0 mm 5 mps 747 mmHg 84%
04:00 +13°C° 0 mm 5 mps 747 mmHg 83%
05:00 +14°C° 0 mm 5 mps 747 mmHg 82%
06:00 +14°C° 0 mm 6 mps 747 mmHg 80%
07:00 +15°C° 0 mm 6 mps 746 mmHg 79%
08:00 +17°C° 0 mm 6 mps 746 mmHg 74%
09:00 +20°C° 0 mm 6 mps 746 mmHg 69%
10:00 +21°C° 0 mm 7 mps 746 mmHg 65%
11:00 +22°C° 0 mm 7 mps 746 mmHg 63%
12:00 +23°C° 0 mm 7 mps 746 mmHg 61%
13:00 +24°C° 0 mm 7 mps 746 mmHg 59%
14:00 +24°C° 0 mm 7 mps 746 mmHg 60%
15:00 +24°C° 0 mm 7 mps 745 mmHg 61%
16:00 +24°C° 0 mm 7 mps 745 mmHg 62%
17:00 +23°C° 0 mm 7 mps 745 mmHg 66%
18:00 +21°C° 0 mm 7 mps 745 mmHg 69%
19:00 +20°C° 0 mm 7 mps 744 mmHg 72%
20:00 +18°C° 0 mm 7 mps 745 mmHg 73%
21:00 +17°C° 0 mm 6 mps 745 mmHg 74%
22:00 +17°C° 0 mm 6 mps 745 mmHg 75%
23:00 +16°C° 0 mm 5 mps 745 mmHg 79%
Show more